Time,TemperatureF,DewpointF,PressureIn,WindDirection,WindDirectionDegrees,WindSpeedMPH,WindSpeedGustMPH,Humidity,HourlyPrecipIn,Conditions,Clouds,dailyrainin,SoftwareType,DateUTC
2013-07-12 00:01:00,53.7,49.6,29.99,NE,50,0.0,0.0,86,0.00,,,0.00,WUHU216DAVISVP2,2013-07-12 07:01:00,
2013-07-12 00:06:00,53.5,49.4,29.99,NE,50,0.0,0.0,86,0.00,,,0.00,WUHU216DAVISVP2,2013-07-12 07:06:00,
2013-07-12 00:11:00,53.4,49.6,29.99,NE,50,0.0,0.0,87,0.00,,,0.00,WUHU216DAVISVP2,2013-07-12 07:11:00,
2013-07-12 00:16:00,53.2,49.4,30.00,NE,50,0.0,0.0,87,0.00,,,0.00,WUHU216DAVISVP2,2013-07-12 07:16:00,
2013-07-12 00:21:00,53.0,49.2,29.99,NE,50,0.0,0.0,87,0.00,,,0.00,WUHU216DAVISVP2,2013-07-12 07:21:00,
2013-07-12 00:26:00,52.8,49.0,29.99,NE,50,0.0,0.0,87,0.00,,,0.00,WUHU216DAVISVP2,2013-07-12 07:26:00,
2013-07-12 00:31:00,52.6,48.8,29.99,NE,50,0.0,0.0,87,0.00,,,0.00,WUHU216DAVISVP2,2013-07-12 07:31:00,
2013-07-12 00:36:00,52.4,48.6,29.99,NE,50,0.0,0.0,87,0.00,,,0.00,WUHU216DAVISVP2,2013-07-12 07:36:00,
2013-07-12 00:41:00,52.2,48.7,29.99,NE,50,0.0,0.0,88,0.00,,,0.00,WUHU216DAVISVP2,2013-07-12 07:41:00,
2013-07-12 00:46:00,52.0,48.5,29.99,NE,50,0.0,0.0,88,0.00,,,0.00,WUHU216DAVISVP2,2013-07-12 07:46:00,
2013-07-12 00:51:00,51.8,48.3,29.99,NE,50,0.0,0.0,88,0.00,,,0.00,WUHU216DAVISVP2,2013-07-12 07:51:00,
2013-07-12 00:56:00,51.6,48.4,29.99,NE,50,0.0,0.0,89,0.00,,,0.00,WUHU216DAVISVP2,2013-07-12 07:56:00,
2013-07-12 01:01:00,51.4,48.2,29.99,NE,50,0.0,0.0,89,0.00,,,0.00,WUHU216DAVISVP2,2013-07-12 08:01:00,
2013-07-12 01:06:00,51.3,48.1,30.00,NE,50,0.0,0.0,89,0.00,,,0.00,WUHU216DAVISVP2,2013-07-12 08:06:00,
2013-07-12 01:11:00,51.2,48.0,30.00,NE,50,0.0,0.0,89,0.00,,,0.00,WUHU216DAVISVP2,2013-07-12 08:11:00,
2013-07-12 01:16:00,51.0,48.1,30.00,NE,50,0.0,0.0,90,0.00,,,0.00,WUHU216DAVISVP2,2013-07-12 08:16:00,
2013-07-12 01:21:00,50.9,48.0,30.00,NE,50,0.0,0.0,90,0.00,,,0.00,WUHU216DAVISVP2,2013-07-12 08:21:00,
2013-07-12 01:26:00,50.7,47.8,29.99,NE,50,0.0,0.0,90,0.00,,,0.00,WUHU216DAVISVP2,2013-07-12 08:26:00,
2013-07-12 01:31:00,50.5,47.6,29.99,NE,50,0.0,0.0,90,0.00,,,0.00,WUHU216DAVISVP2,2013-07-12 08:31:00,
2013-07-12 01:36:00,50.4,47.5,29.99,NE,50,0.0,0.0,90,0.00,,,0.00,WUHU216DAVISVP2,2013-07-12 08:36:00,
2013-07-12 01:41:00,50.1,47.2,29.99,NE,50,0.0,0.0,90,0.00,,,0.00,WUHU216DAVISVP2,2013-07-12 08:41:00,
2013-07-12 01:46:00,49.9,47.3,29.99,NE,50,0.0,0.0,91,0.00,,,0.00,WUHU216DAVISVP2,2013-07-12 08:46:00,
2013-07-12 01:51:00,49.7,47.2,30.00,NE,50,0.0,0.0,91,0.00,,,0.00,WUHU216DAVISVP2,2013-07-12 08:51:00,
2013-07-12 01:56:00,49.6,47.1,29.99,NE,50,0.0,0.0,91,0.00,,,0.00,WUHU216DAVISVP2,2013-07-12 08:56:00,
2013-07-12 02:01:00,49.4,46.8,29.99,NE,50,0.0,0.0,91,0.00,,,0.00,WUHU216DAVISVP2,2013-07-12 09:01:00,
2013-07-12 02:06:00,49.2,46.6,30.00,NE,50,0.0,0.0,91,0.00,,,0.00,WUHU216DAVISVP2,2013-07-12 09:06:00,
2013-07-12 02:11:00,49.1,46.5,30.00,NE,50,0.0,0.0,91,0.00,,,0.00,WUHU216DAVISVP2,2013-07-12 09:11:00,
2013-07-12 02:16:00,48.9,46.7,30.00,NE,50,0.0,0.0,92,0.00,,,0.00,WUHU216DAVISVP2,2013-07-12 09:16:00,
2013-07-12 02:21:00,48.8,46.6,29.99,NE,50,0.0,0.0,92,0.00,,,0.00,WUHU216DAVISVP2,2013-07-12 09:21:00,
2013-07-12 02:26:00,48.6,46.3,29.99,NE,50,0.0,0.0,92,0.00,,,0.00,WUHU216DAVISVP2,2013-07-12 09:26:00,
2013-07-12 02:31:00,48.5,46.2,29.99,NE,50,0.0,0.0,92,0.00,,,0.00,WUHU216DAVISVP2,2013-07-12 09:31:00,
2013-07-12 02:36:00,48.4,46.1,30.00,NE,50,0.0,0.0,92,0.00,,,0.00,WUHU216DAVISVP2,2013-07-12 09:36:00,
2013-07-12 02:41:00,48.3,46.1,30.00,NE,50,0.0,0.0,92,0.00,,,0.00,WUHU216DAVISVP2,2013-07-12 09:41:00,
2013-07-12 02:46:00,48.2,46.2,30.00,NE,50,0.0,0.0,93,0.00,,,0.00,WUHU216DAVISVP2,2013-07-12 09:46:00,
2013-07-12 02:51:00,48.0,46.0,30.00,NE,50,0.0,0.0,93,0.00,,,0.00,WUHU216DAVISVP2,2013-07-12 09:51:00,
2013-07-12 02:56:00,47.9,45.9,30.00,NE,50,0.0,0.0,93,0.00,,,0.00,WUHU216DAVISVP2,2013-07-12 09:56:00,
2013-07-12 03:01:00,47.8,45.8,30.00,NE,50,0.0,0.0,93,0.00,,,0.00,WUHU216DAVISVP2,2013-07-12 10:01:00,
2013-07-12 03:06:00,47.7,45.8,30.00,NE,50,0.0,0.0,93,0.00,,,0.00,WUHU216DAVISVP2,2013-07-12 10:06:00,
2013-07-12 03:11:00,47.6,45.6,30.00,NE,50,0.0,0.0,93,0.00,,,0.00,WUHU216DAVISVP2,2013-07-12 10:11:00,
2013-07-12 03:16:00,47.6,45.6,30.00,NE,50,0.0,0.0,93,0.00,,,0.00,WUHU216DAVISVP2,2013-07-12 10:16:00,
2013-07-12 03:21:00,47.6,45.9,30.00,NE,50,0.0,0.0,94,0.00,,,0.00,WUHU216DAVISVP2,2013-07-12 10:21:00,
2013-07-12 03:26:00,47.6,45.7,30.00,NE,50,0.0,0.0,93,0.00,,,0.00,WUHU216DAVISVP2,2013-07-12 10:26:00,
2013-07-12 03:31:00,47.5,45.6,30.00,NE,50,0.0,0.0,93,0.00,,,0.00,WUHU216DAVISVP2,2013-07-12 10:31:00,
2013-07-12 03:36:00,47.5,45.5,30.00,NE,50,0.0,0.0,93,0.00,,,0.00,WUHU216DAVISVP2,2013-07-12 10:36:00,
2013-07-12 03:41:00,47.4,45.4,30.00,NE,50,0.0,0.0,93,0.00,,,0.00,WUHU216DAVISVP2,2013-07-12 10:41:00,
2013-07-12 03:46:00,47.4,45.7,30.00,NE,50,0.0,0.0,94,0.00,,,0.00,WUHU216DAVISVP2,2013-07-12 10:46:00,
2013-07-12 03:51:00,47.3,45.6,30.00,NE,50,0.0,0.0,94,0.00,,,0.00,WUHU216DAVISVP2,2013-07-12 10:51:00,
2013-07-12 03:56:00,47.2,45.5,30.00,NE,50,0.0,0.0,94,0.00,,,0.00,WUHU216DAVISVP2,2013-07-12 10:56:00,
2013-07-12 04:01:00,47.2,45.5,30.00,NE,50,0.0,0.0,94,0.00,,,0.00,WUHU216DAVISVP2,2013-07-12 11:01:00,
2013-07-12 04:06:00,47.1,45.4,30.00,NE,50,0.0,0.0,94,0.00,,,0.00,WUHU216DAVISVP2,2013-07-12 11:06:00,
2013-07-12 04:11:00,47.0,45.0,30.00,NE,50,0.0,0.0,93,0.00,,,0.00,WUHU216DAVISVP2,2013-07-12 11:11:00,
2013-07-12 04:16:00,46.9,45.2,30.00,NE,50,0.0,0.0,94,0.00,,,0.00,WUHU216DAVISVP2,2013-07-12 11:16:00,
2013-07-12 04:21:00,46.9,44.9,30.00,NE,50,0.0,0.0,93,0.00,,,0.00,WUHU216DAVISVP2,2013-07-12 11:21:00,
2013-07-12 04:26:00,46.8,44.8,30.00,NE,50,0.0,0.0,93,0.00,,,0.00,WUHU216DAVISVP2,2013-07-12 11:26:00,
2013-07-12 04:31:00,46.6,44.6,29.99,NE,50,0.0,0.0,93,0.00,,,0.00,WUHU216DAVISVP2,2013-07-12 11:31:00,
2013-07-12 04:36:00,46.6,44.9,30.00,NE,50,0.0,0.0,94,0.00,,,0.00,WUHU216DAVISVP2,2013-07-12 11:36:00,
2013-07-12 04:41:00,46.5,44.8,29.99,NE,50,0.0,0.0,94,0.00,,,0.00,WUHU216DAVISVP2,2013-07-12 11:41:00,
2013-07-12 04:46:00,46.4,44.7,30.00,NE,50,0.0,0.0,94,0.00,,,0.00,WUHU216DAVISVP2,2013-07-12 11:46:00,
2013-07-12 04:51:00,46.3,44.6,30.00,NE,50,0.0,0.0,94,0.00,,,0.00,WUHU216DAVISVP2,2013-07-12 11:51:00,
2013-07-12 04:56:00,46.2,44.5,30.00,NE,50,0.0,0.0,94,0.00,,,0.00,WUHU216DAVISVP2,2013-07-12 11:56:00,
2013-07-12 05:01:00,46.2,44.5,30.00,NE,50,0.0,0.0,94,0.00,,,0.00,WUHU216DAVISVP2,2013-07-12 12:01:00,
2013-07-12 05:06:00,46.2,44.8,30.00,NE,50,0.0,0.0,95,0.00,,,0.00,WUHU216DAVISVP2,2013-07-12 12:06:00,
2013-07-12 05:11:00,46.1,44.4,30.00,NE,50,0.0,0.0,94,0.00,,,0.00,WUHU216DAVISVP2,2013-07-12 12:11:00,
2013-07-12 05:16:00,46.0,44.3,30.00,NE,50,0.0,0.0,94,0.00,,,0.00,WUHU216DAVISVP2,2013-07-12 12:16:00,
2013-07-12 05:21:00,46.0,44.3,30.00,NE,50,0.0,0.0,94,0.00,,,0.00,WUHU216DAVISVP2,2013-07-12 12:21:00,
2013-07-12 05:26:00,45.9,44.5,30.00,NE,50,0.0,0.0,95,0.00,,,0.00,WUHU216DAVISVP2,2013-07-12 12:26:00,
2013-07-12 05:31:00,45.8,44.4,30.00,NE,50,0.0,0.0,95,0.00,,,0.00,WUHU216DAVISVP2,2013-07-12 12:31:00,
2013-07-12 05:36:00,45.8,44.4,30.00,NE,50,0.0,0.0,95,0.00,,,0.00,WUHU216DAVISVP2,2013-07-12 12:36:00,
2013-07-12 05:41:00,45.8,44.4,30.00,NE,50,0.0,0.0,95,0.00,,,0.00,WUHU216DAVISVP2,2013-07-12 12:41:00,
2013-07-12 05:46:00,45.8,44.4,30.00,NE,50,0.0,0.0,95,0.00,,,0.00,WUHU216DAVISVP2,2013-07-12 12:46:00,
2013-07-12 05:51:00,45.8,44.4,30.00,NE,50,0.0,0.0,95,0.00,,,0.00,WUHU216DAVISVP2,2013-07-12 12:51:00,
2013-07-12 05:56:00,45.7,44.4,30.00,ENE,67,0.0,0.0,95,0.00,,,0.00,WUHU216DAVISVP2,2013-07-12 12:56:00,
2013-07-12 06:01:00,45.7,44.4,30.00,ENE,67,0.0,0.0,95,0.00,,,0.00,WUHU216DAVISVP2,2013-07-12 13:01:00,
2013-07-12 06:06:00,45.8,44.4,30.00,ENE,67,0.0,0.0,95,0.00,,,0.00,WUHU216DAVISVP2,2013-07-12 13:06:00,
2013-07-12 06:11:00,45.9,44.5,30.00,ENE,67,0.0,0.0,95,0.00,,,0.00,WUHU216DAVISVP2,2013-07-12 13:11:00,
2013-07-12 06:16:00,46.0,44.9,30.00,ENE,67,0.0,0.0,96,0.00,,,0.00,WUHU216DAVISVP2,2013-07-12 13:16:00,
2013-07-12 06:21:00,46.2,45.1,30.00,ENE,67,0.0,0.0,96,0.00,,,0.00,WUHU216DAVISVP2,2013-07-12 13:21:00,
2013-07-12 06:26:00,46.3,45.2,30.00,ENE,67,0.0,1.0,96,0.00,,,0.00,WUHU216DAVISVP2,2013-07-12 13:26:00,
2013-07-12 06:31:00,46.5,45.4,29.99,ENE,67,0.0,1.0,96,0.00,,,0.00,WUHU216DAVISVP2,2013-07-12 13:31:00,
2013-07-12 06:36:00,46.6,45.5,29.99,ENE,67,0.0,0.0,96,0.00,,,0.00,WUHU216DAVISVP2,2013-07-12 13:36:00,
2013-07-12 06:41:00,46.8,45.7,29.99,ENE,67,0.0,0.0,96,0.00,,,0.00,WUHU216DAVISVP2,2013-07-12 13:41:00,
2013-07-12 06:46:00,46.9,45.5,29.99,ENE,67,0.0,0.0,95,0.00,,,0.00,WUHU216DAVISVP2,2013-07-12 13:46:00,
2013-07-12 06:51:00,47.1,45.7,30.00,ENE,67,0.0,0.0,95,0.00,,,0.00,WUHU216DAVISVP2,2013-07-12 13:51:00,
2013-07-12 06:56:00,47.4,46.3,30.00,ENE,67,0.0,0.0,96,0.00,,,0.00,WUHU216DAVISVP2,2013-07-12 13:56:00,
2013-07-12 07:01:00,47.6,46.5,30.00,ENE,67,0.0,0.0,96,0.00,,,0.00,WUHU216DAVISVP2,2013-07-12 14:01:00,
2013-07-12 07:06:00,47.8,46.7,30.00,ENE,67,0.0,0.0,96,0.00,,,0.00,WUHU216DAVISVP2,2013-07-12 14:06:00,
2013-07-12 07:11:00,48.1,46.7,30.00,ENE,67,0.0,0.0,95,0.00,,,0.00,WUHU216DAVISVP2,2013-07-12 14:11:00,
2013-07-12 07:16:00,48.3,46.9,30.00,ENE,67,0.0,0.0,95,0.00,,,0.00,WUHU216DAVISVP2,2013-07-12 14:16:00,
2013-07-12 07:21:00,48.7,47.3,30.00,ENE,67,0.0,0.0,95,0.00,,,0.00,WUHU216DAVISVP2,2013-07-12 14:21:00,
2013-07-12 07:26:00,49.0,47.6,30.00,ENE,67,0.0,0.0,95,0.00,,,0.00,WUHU216DAVISVP2,2013-07-12 14:26:00,
2013-07-12 07:31:00,49.4,48.0,30.00,ENE,67,0.0,0.0,95,0.00,,,0.00,WUHU216DAVISVP2,2013-07-12 14:31:00,
2013-07-12 07:36:00,49.7,48.0,30.00,ENE,67,0.0,0.0,94,0.00,,,0.00,WUHU216DAVISVP2,2013-07-12 14:36:00,
2013-07-12 07:41:00,50.0,48.3,30.00,ENE,67,0.0,0.0,94,0.00,,,0.00,WUHU216DAVISVP2,2013-07-12 14:41:00,
2013-07-12 07:46:00,50.3,48.6,30.00,ENE,67,0.0,0.0,94,0.00,,,0.00,WUHU216DAVISVP2,2013-07-12 14:46:00,
2013-07-12 07:51:00,50.5,48.2,30.00,ENE,67,0.0,0.0,92,0.00,,,0.00,WUHU216DAVISVP2,2013-07-12 14:51:00,
2013-07-12 07:56:00,50.8,48.5,30.00,ENE,67,0.0,0.0,92,0.00,,,0.00,WUHU216DAVISVP2,2013-07-12 14:56:00,
2013-07-12 08:01:00,51.0,48.7,30.01,ENE,67,0.0,0.0,92,0.00,,,0.00,WUHU216DAVISVP2,2013-07-12 15:01:00,
2013-07-12 08:06:00,51.3,48.7,30.01,ENE,67,0.0,0.0,91,0.00,,,0.00,WUHU216DAVISVP2,2013-07-12 15:06:00,
2013-07-12 08:11:00,51.5,48.9,30.01,West,279,0.0,1.0,91,0.00,,,0.00,WUHU216DAVISVP2,2013-07-12 15:11:00,
2013-07-12 08:16:00,51.7,49.1,30.01,West,279,0.0,1.0,91,0.00,,,0.00,WUHU216DAVISVP2,2013-07-12 15:16:00,
2013-07-12 08:21:00,51.9,49.0,30.01,NNW,348,1.0,1.0,90,0.00,,,0.00,WUHU216DAVISVP2,2013-07-12 15:21:00,
2013-07-12 08:26:00,51.8,48.6,30.01,NNW,348,0.0,1.0,89,0.00,,,0.00,WUHU216DAVISVP2,2013-07-12 15:26:00,
2013-07-12 08:31:00,51.9,48.7,30.01,NNW,348,0.0,0.0,89,0.00,,,0.00,WUHU216DAVISVP2,2013-07-12 15:31:00,
2013-07-12 08:36:00,51.9,49.0,30.01,NNW,348,0.0,0.0,90,0.00,,,0.00,WUHU216DAVISVP2,2013-07-12 15:36:00,
2013-07-12 08:41:00,52.0,48.8,30.00,NNW,348,0.0,0.0,89,0.00,,,0.00,WUHU216DAVISVP2,2013-07-12 15:41:00,
2013-07-12 08:46:00,52.0,48.8,30.01,WSW,241,0.0,1.0,89,0.00,,,0.00,WUHU216DAVISVP2,2013-07-12 15:46:00,
2013-07-12 08:51:00,52.0,48.8,30.01,NNW,327,0.0,2.0,89,0.00,,,0.00,WUHU216DAVISVP2,2013-07-12 15:51:00,
2013-07-12 08:56:00,52.2,49.3,30.00,NNW,327,1.0,2.0,90,0.00,,,0.00,WUHU216DAVISVP2,2013-07-12 15:56:00,
2013-07-12 09:01:00,52.4,49.5,30.00,NW,320,0.0,1.0,90,0.00,,,0.00,WUHU216DAVISVP2,2013-07-12 16:01:00,
2013-07-12 09:06:00,52.5,49.3,30.01,SW,234,0.0,2.0,89,0.00,,,0.00,WUHU216DAVISVP2,2013-07-12 16:06:00,
2013-07-12 09:11:00,52.6,49.4,30.01,SW,234,0.0,2.0,89,0.00,,,0.00,WUHU216DAVISVP2,2013-07-12 16:11:00,
2013-07-12 09:15:00,52.7,49.5,30.01,SW,234,0.0,2.0,89,0.00,,,0.00,WUHU216DAVISVP2,2013-07-12 16:15:00,
2013-07-12 09:20:00,52.8,49.9,30.00,SW,214,1.0,2.0,90,0.00,,,0.00,WUHU216DAVISVP2,2013-07-12 16:20:00,
2013-07-12 09:25:00,53.0,49.8,30.01,WSW,250,0.0,2.0,89,0.00,,,0.00,WUHU216DAVISVP2,2013-07-12 16:25:00,
2013-07-12 09:30:00,53.2,49.7,30.01,SW,219,3.0,3.0,88,0.00,,,0.00,WUHU216DAVISVP2,2013-07-12 16:30:00,
2013-07-12 09:35:00,53.2,49.4,30.00,SW,218,0.0,3.0,87,0.00,,,0.00,WUHU216DAVISVP2,2013-07-12 16:35:00,
2013-07-12 09:40:00,53.3,49.5,30.00,SW,215,3.0,4.0,87,0.00,,,0.00,WUHU216DAVISVP2,2013-07-12 16:40:00,
2013-07-12 09:45:00,53.3,49.8,30.00,SSW,213,1.0,4.0,88,0.00,,,0.00,WUHU216DAVISVP2,2013-07-12 16:45:00,
2013-07-12 09:51:00,53.4,49.9,30.00,SSW,213,1.0,3.0,88,0.00,,,0.00,WUHU216DAVISVP2,2013-07-12 16:51:00,
2013-07-12 09:56:00,53.7,50.5,30.01,West,277,0.0,1.0,89,0.00,,,0.00,WUHU216DAVISVP2,2013-07-12 16:56:00,
2013-07-12 10:01:00,54.1,50.3,30.01,West,273,0.0,2.0,87,0.00,,,0.00,WUHU216DAVISVP2,2013-07-12 17:01:00,
2013-07-12 10:07:00,54.4,50.6,30.00,WSW,244,0.0,2.0,87,0.00,,,0.00,WUHU216DAVISVP2,2013-07-12 17:07:00,
2013-07-12 10:12:00,54.6,50.2,30.01,SW,223,0.0,2.0,85,0.00,,,0.00,WUHU216DAVISVP2,2013-07-12 17:12:00,
2013-07-12 10:17:00,54.8,50.4,30.01,SW,223,1.0,2.0,85,0.00,,,0.00,WUHU216DAVISVP2,2013-07-12 17:17:00,
2013-07-12 10:22:00,54.9,50.5,30.01,South,179,0.0,2.0,85,0.00,,,0.00,WUHU216DAVISVP2,2013-07-12 17:22:00,
2013-07-12 10:27:00,55.1,50.7,30.01,NW,317,0.0,1.0,85,0.00,,,0.00,WUHU216DAVISVP2,2013-07-12 17:27:00,
2013-07-12 10:32:00,55.4,50.7,30.01,NNW,334,0.0,2.0,84,0.00,,,0.00,WUHU216DAVISVP2,2013-07-12 17:32:00,
2013-07-12 10:37:00,55.5,50.8,30.01,NNW,344,0.0,2.0,84,0.00,,,0.00,WUHU216DAVISVP2,2013-07-12 17:37:00,
2013-07-12 10:42:00,55.5,50.8,30.02,NNW,334,0.0,2.0,84,0.00,,,0.00,WUHU216DAVISVP2,2013-07-12 17:42:00,
2013-07-12 10:47:00,55.4,50.3,30.02,NNW,336,0.0,2.0,83,0.00,,,0.00,WUHU216DAVISVP2,2013-07-12 17:47:00,
2013-07-12 10:52:00,55.6,50.5,30.02,NNW,342,0.0,2.0,83,0.00,,,0.00,WUHU216DAVISVP2,2013-07-12 17:52:00,
2013-07-12 10:58:00,55.8,51.4,30.02,North,360,2.0,2.0,85,0.00,,,0.00,WUHU216DAVISVP2,2013-07-12 17:58:00,
2013-07-12 11:03:00,55.9,50.8,30.02,North,350,1.0,4.0,83,0.00,,,0.00,WUHU216DAVISVP2,2013-07-12 18:03:00,
2013-07-12 11:08:00,55.8,50.7,30.02,NNW,348,2.0,4.0,83,0.00,,,0.00,WUHU216DAVISVP2,2013-07-12 18:08:00,
2013-07-12 11:13:00,55.9,50.8,30.02,NNE,17,1.0,2.0,83,0.00,,,0.00,WUHU216DAVISVP2,2013-07-12 18:13:00,
2013-07-12 11:18:00,55.9,50.5,30.02,NNE,17,0.0,2.0,82,0.00,,,0.00,WUHU216DAVISVP2,2013-07-12 18:18:00,
2013-07-12 11:23:00,56.1,50.7,30.02,North,5,0.0,3.0,82,0.00,,,0.00,WUHU216DAVISVP2,2013-07-12 18:23:00,
2013-07-12 11:28:00,56.3,50.9,30.02,NNW,343,1.0,2.0,82,0.00,,,0.00,WUHU216DAVISVP2,2013-07-12 18:28:00,
2013-07-12 11:33:00,56.5,51.1,30.01,NNW,340,0.0,2.0,82,0.00,,,0.00,WUHU216DAVISVP2,2013-07-12 18:33:00,
2013-07-12 11:39:00,56.6,50.9,30.01,NNW,340,0.0,2.0,81,0.00,,,0.00,WUHU216DAVISVP2,2013-07-12 18:39:00,
2013-07-12 11:44:00,56.7,51.3,30.02,NNW,346,2.0,2.0,82,0.00,,,0.00,WUHU216DAVISVP2,2013-07-12 18:44:00,
2013-07-12 11:49:00,56.8,51.1,30.02,NNW,346,0.0,2.0,81,0.00,,,0.00,WUHU216DAVISVP2,2013-07-12 18:49:00,
2013-07-12 11:54:00,56.8,51.1,30.02,NNW,341,0.0,1.0,81,0.00,,,0.00,WUHU216DAVISVP2,2013-07-12 18:54:00,
2013-07-12 11:59:00,57.1,51.7,30.02,NW,325,0.0,1.0,82,0.00,,,0.00,WUHU216DAVISVP2,2013-07-12 18:59:00,
2013-07-12 12:04:00,57.2,51.5,30.02,NW,306,1.0,1.0,81,0.00,,,0.00,WUHU216DAVISVP2,2013-07-12 19:04:00,
2013-07-12 12:09:00,57.3,51.2,30.02,NNW,333,1.0,1.0,80,0.00,,,0.00,WUHU216DAVISVP2,2013-07-12 19:09:00,
2013-07-12 12:14:00,57.5,51.1,30.03,NNW,338,1.0,3.0,79,0.00,,,0.00,WUHU216DAVISVP2,2013-07-12 19:14:00,
2013-07-12 12:19:00,57.6,51.9,30.03,West,278,0.0,3.0,81,0.00,,,0.00,WUHU216DAVISVP2,2013-07-12 19:19:00,
2013-07-12 12:24:00,57.8,51.7,30.03,WNW,293,1.0,2.0,80,0.00,,,0.00,WUHU216DAVISVP2,2013-07-12 19:24:00,
2013-07-12 12:29:00,58.1,51.7,30.03,WNW,299,0.0,3.0,79,0.00,,,0.00,WUHU216DAVISVP2,2013-07-12 19:29:00,
2013-07-12 12:34:00,58.2,51.1,30.03,SW,235,1.0,3.0,77,0.00,,,0.00,WUHU216DAVISVP2,2013-07-12 19:34:00,
2013-07-12 12:39:00,58.3,51.2,30.04,North,349,1.0,4.0,77,0.00,,,0.00,WUHU216DAVISVP2,2013-07-12 19:39:00,
2013-07-12 12:44:00,58.2,51.1,30.04,NNW,333,0.0,4.0,77,0.00,,,0.00,WUHU216DAVISVP2,2013-07-12 19:44:00,
2013-07-12 12:49:00,58.2,51.1,30.04,NNW,336,0.0,4.0,77,0.00,,,0.00,WUHU216DAVISVP2,2013-07-12 19:49:00,
2013-07-12 12:55:00,58.1,51.3,30.04,WNW,286,0.0,4.0,78,0.00,,,0.00,WUHU216DAVISVP2,2013-07-12 19:55:00,
2013-07-12 13:00:00,58.0,51.6,30.05,NNW,341,0.0,4.0,79,0.00,,,0.00,WUHU216DAVISVP2,2013-07-12 20:00:00,
2013-07-12 13:05:00,58.1,51.3,30.05,NW,325,3.0,5.0,78,0.00,,,0.00,WUHU216DAVISVP2,2013-07-12 20:05:00,
2013-07-12 13:10:00,58.3,51.5,30.05,North,355,2.0,5.0,78,0.00,,,0.00,WUHU216DAVISVP2,2013-07-12 20:10:00,
2013-07-12 13:16:00,58.6,51.8,30.04,North,5,2.0,4.0,78,0.00,,,0.00,WUHU216DAVISVP2,2013-07-12 20:16:00,
2013-07-12 13:21:00,59.1,51.6,30.04,NNE,30,0.0,4.0,76,0.00,,,0.00,WUHU216DAVISVP2,2013-07-12 20:21:00,
2013-07-12 13:26:00,59.4,51.6,30.04,SW,217,1.0,4.0,75,0.00,,,0.00,WUHU216DAVISVP2,2013-07-12 20:26:00,
2013-07-12 13:31:00,59.6,51.8,30.05,NNW,335,0.0,3.0,75,0.00,,,0.00,WUHU216DAVISVP2,2013-07-12 20:31:00,
2013-07-12 13:36:00,59.9,51.7,30.04,NNW,344,0.0,3.0,74,0.00,,,0.00,WUHU216DAVISVP2,2013-07-12 20:36:00,
2013-07-12 13:41:00,60.2,53.0,30.05,NNW,346,1.0,2.0,77,0.00,,,0.00,WUHU216DAVISVP2,2013-07-12 20:41:00,
2013-07-12 13:46:00,60.5,52.3,30.05,West,277,0.0,2.0,74,0.00,,,0.00,WUHU216DAVISVP2,2013-07-12 20:46:00,
2013-07-12 13:51:00,60.6,52.4,30.05,NE,53,1.0,2.0,74,0.00,,,0.00,WUHU216DAVISVP2,2013-07-12 20:51:00,
2013-07-12 13:56:00,60.7,52.5,30.05,NNW,336,1.0,4.0,74,0.00,,,0.00,WUHU216DAVISVP2,2013-07-12 20:56:00,
2013-07-12 14:01:00,60.7,51.7,30.05,North,5,0.0,4.0,72,0.00,,,0.00,WUHU216DAVISVP2,2013-07-12 21:01:00,
2013-07-12 14:07:00,60.8,52.1,30.05,NE,45,0.0,3.0,73,0.00,,,0.00,WUHU216DAVISVP2,2013-07-12 21:07:00,
2013-07-12 14:12:00,60.7,51.7,30.05,NNE,32,0.0,5.0,72,0.00,,,0.00,WUHU216DAVISVP2,2013-07-12 21:12:00,
2013-07-12 14:17:00,60.8,52.6,30.04,NW,324,4.0,5.0,74,0.00,,,0.00,WUHU216DAVISVP2,2013-07-12 21:17:00,
2013-07-12 14:22:00,60.9,51.9,30.04,NNW,332,1.0,4.0,72,0.00,,,0.00,WUHU216DAVISVP2,2013-07-12 21:22:00,
2013-07-12 14:27:00,61.0,52.7,30.04,NE,36,0.0,4.0,74,0.00,,,0.00,WUHU216DAVISVP2,2013-07-12 21:27:00,
2013-07-12 14:32:00,61.2,52.5,30.04,NE,35,0.0,4.0,73,0.00,,,0.00,WUHU216DAVISVP2,2013-07-12 21:32:00,
2013-07-12 14:37:00,61.4,52.4,30.04,NE,38,0.0,3.0,72,0.00,,,0.00,WUHU216DAVISVP2,2013-07-12 21:37:00,
2013-07-12 14:42:00,61.3,52.0,30.04,NNE,17,1.0,5.0,71,0.00,,,0.00,WUHU216DAVISVP2,2013-07-12 21:42:00,
2013-07-12 14:47:00,61.3,52.3,30.05,NE,38,0.0,3.0,72,0.00,,,0.00,WUHU216DAVISVP2,2013-07-12 21:47:00,
2013-07-12 14:53:00,61.5,52.4,30.04,NNE,29,2.0,4.0,72,0.00,,,0.00,WUHU216DAVISVP2,2013-07-12 21:53:00,
2013-07-12 14:58:00,61.7,52.2,30.04,NNW,334,4.0,4.0,71,0.00,,,0.00,WUHU216DAVISVP2,2013-07-12 21:58:00,
2013-07-12 15:03:00,62.0,52.6,30.04,ENE,78,1.0,4.0,71,0.00,,,0.00,WUHU216DAVISVP2,2013-07-12 22:03:00,
2013-07-12 15:09:00,62.3,52.1,30.03,WNW,284,1.0,3.0,69,0.00,,,0.00,WUHU216DAVISVP2,2013-07-12 22:09:00,
2013-07-12 15:14:00,62.6,52.8,30.03,West,279,3.0,5.0,70,0.00,,,0.00,WUHU216DAVISVP2,2013-07-12 22:14:00,
2013-07-12 15:19:00,63.0,52.4,30.03,NNW,337,1.0,5.0,68,0.00,,,0.00,WUHU216DAVISVP2,2013-07-12 22:19:00,
2013-07-12 15:24:00,63.0,52.0,30.03,NNW,342,1.0,4.0,67,0.00,,,0.00,WUHU216DAVISVP2,2013-07-12 22:24:00,
2013-07-12 15:29:00,62.9,51.1,30.03,NNW,327,0.0,4.0,65,0.00,,,0.00,WUHU216DAVISVP2,2013-07-12 22:29:00,
2013-07-12 15:34:00,62.9,51.1,30.03,NNW,338,0.0,2.0,65,0.00,,,0.00,WUHU216DAVISVP2,2013-07-12 22:34:00,
2013-07-12 15:39:00,63.2,51.8,30.03,WSW,248,2.0,2.0,66,0.00,,,0.00,WUHU216DAVISVP2,2013-07-12 22:39:00,
2013-07-12 15:45:00,63.8,52.8,30.03,West,271,0.0,2.0,67,0.00,,,0.00,WUHU216DAVISVP2,2013-07-12 22:45:00,
2013-07-12 15:50:00,64.2,51.9,30.03,NW,320,2.0,5.0,64,0.00,,,0.00,WUHU216DAVISVP2,2013-07-12 22:50:00,
2013-07-12 15:55:00,64.5,52.2,30.03,SW,218,1.0,5.0,64,0.00,,,0.00,WUHU216DAVISVP2,2013-07-12 22:55:00,
2013-07-12 16:00:00,64.8,51.6,30.03,NNE,30,0.0,4.0,62,0.00,,,0.00,WUHU216DAVISVP2,2013-07-12 23:00:00,
2013-07-12 16:06:00,65.0,51.8,30.03,WSW,246,1.0,3.0,62,0.00,,,0.00,WUHU216DAVISVP2,2013-07-12 23:06:00,
2013-07-12 16:11:00,65.3,52.1,30.03,NNE,18,0.0,3.0,62,0.00,,,0.00,WUHU216DAVISVP2,2013-07-12 23:11:00,
2013-07-12 16:16:00,65.2,51.6,30.03,WNW,286,2.0,3.0,61,0.00,,,0.00,WUHU216DAVISVP2,2013-07-12 23:16:00,
2013-07-12 16:21:00,64.9,51.7,30.03,SSW,209,1.0,2.0,62,0.00,,,0.00,WUHU216DAVISVP2,2013-07-12 23:21:00,
2013-07-12 16:26:00,64.8,51.6,30.02,West,271,0.0,2.0,62,0.00,,,0.00,WUHU216DAVISVP2,2013-07-12 23:26:00,
2013-07-12 16:31:00,64.8,51.2,30.03,NNW,339,4.0,5.0,61,0.00,,,0.00,WUHU216DAVISVP2,2013-07-12 23:31:00,
2013-07-12 16:37:00,64.3,51.6,30.03,NNW,338,2.0,5.0,63,0.00,,,0.00,WUHU216DAVISVP2,2013-07-12 23:37:00,
2013-07-12 16:42:00,64.4,52.5,30.02,SW,234,1.0,5.0,65,0.00,,,0.00,WUHU216DAVISVP2,2013-07-12 23:42:00,
2013-07-12 16:47:00,64.4,52.1,30.03,North,5,0.0,5.0,64,0.00,,,0.00,WUHU216DAVISVP2,2013-07-12 23:47:00,
2013-07-12 16:52:00,64.8,51.6,30.03,NW,322,1.0,5.0,62,0.00,,,0.00,WUHU216DAVISVP2,2013-07-12 23:52:00,
2013-07-12 16:57:00,64.9,52.2,30.02,NW,311,0.0,2.0,63,0.00,,,0.00,WUHU216DAVISVP2,2013-07-12 23:57:00,
2013-07-12 17:02:00,65.1,52.4,30.02,North,350,0.0,2.0,63,0.00,,,0.00,WUHU216DAVISVP2,2013-07-13 00:02:00,
2013-07-12 17:07:00,65.3,52.1,30.02,NW,311,0.0,2.0,62,0.00,,,0.00,WUHU216DAVISVP2,2013-07-13 00:07:00,
2013-07-12 17:12:00,65.3,51.1,30.02,NNW,342,3.0,5.0,60,0.00,,,0.00,WUHU216DAVISVP2,2013-07-13 00:12:00,
2013-07-12 17:17:00,65.2,50.5,30.02,ENE,57,3.0,5.0,59,0.00,,,0.00,WUHU216DAVISVP2,2013-07-13 00:17:00,
2013-07-12 17:22:00,65.2,50.7,30.02,NNE,14,0.0,3.0,59,0.00,,,0.00,WUHU216DAVISVP2,2013-07-13 00:22:00,
2013-07-12 17:27:00,65.3,50.8,30.02,NNE,24,1.0,3.0,59,0.00,,,0.00,WUHU216DAVISVP2,2013-07-13 00:27:00,
2013-07-12 17:32:00,65.4,50.4,30.02,North,5,1.0,5.0,58,0.00,,,0.00,WUHU216DAVISVP2,2013-07-13 00:32:00,
2013-07-12 17:38:00,65.6,49.5,30.02,North,355,1.0,6.0,56,0.00,,,0.00,WUHU216DAVISVP2,2013-07-13 00:38:00,
2013-07-12 17:43:00,65.7,50.0,30.02,North,355,3.0,6.0,57,0.00,,,0.00,WUHU216DAVISVP2,2013-07-13 00:43:00,
2013-07-12 17:48:00,65.4,50.8,30.02,NNW,345,1.0,7.0,59,0.00,,,0.00,WUHU216DAVISVP2,2013-07-13 00:48:00,
2013-07-12 17:54:00,65.2,50.7,30.02,North,350,0.0,7.0,59,0.00,,,0.00,WUHU216DAVISVP2,2013-07-13 00:54:00,
2013-07-12 17:59:00,65.2,51.1,30.02,WNW,287,0.0,4.0,60,0.00,,,0.00,WUHU216DAVISVP2,2013-07-13 00:59:00,
2013-07-12 18:04:00,65.4,49.8,30.02,NNW,338,1.0,4.0,57,0.00,,,0.00,WUHU216DAVISVP2,2013-07-13 01:04:00,
2013-07-12 18:10:00,65.7,50.5,30.02,ESE,103,0.0,3.0,58,0.00,,,0.00,WUHU216DAVISVP2,2013-07-13 01:10:00,
2013-07-12 18:15:00,65.9,50.2,30.02,NW,313,4.0,6.0,57,0.00,,,0.00,WUHU216DAVISVP2,2013-07-13 01:15:00,
2013-07-12 18:20:00,65.9,50.8,30.02,SSE,166,3.0,6.0,58,0.00,,,0.00,WUHU216DAVISVP2,2013-07-13 01:20:00,
2013-07-12 18:25:00,65.7,51.1,30.03,NNW,341,0.0,4.0,59,0.00,,,0.00,WUHU216DAVISVP2,2013-07-13 01:25:00,
2013-07-12 18:31:00,65.6,51.5,30.03,West,259,1.0,5.0,60,0.00,,,0.00,WUHU216DAVISVP2,2013-07-13 01:31:00,
2013-07-12 18:36:00,65.2,51.1,30.02,NE,45,3.0,5.0,60,0.00,,,0.00,WUHU216DAVISVP2,2013-07-13 01:36:00,
2013-07-12 18:41:00,64.7,51.1,30.03,NNW,333,0.0,4.0,61,0.00,,,0.00,WUHU216DAVISVP2,2013-07-13 01:41:00,
2013-07-12 18:46:00,64.2,51.5,30.03,NW,318,0.0,4.0,63,0.00,,,0.00,WUHU216DAVISVP2,2013-07-13 01:46:00,
2013-07-12 18:51:00,63.7,51.5,30.03,NNW,331,1.0,4.0,64,0.00,,,0.00,WUHU216DAVISVP2,2013-07-13 01:51:00,
2013-07-12 18:56:00,63.5,52.1,30.03,NE,46,3.0,4.0,66,0.00,,,0.00,WUHU216DAVISVP2,2013-07-13 01:56:00,
2013-07-12 19:01:00,63.4,52.0,30.03,West,277,0.0,3.0,66,0.00,,,0.00,WUHU216DAVISVP2,2013-07-13 02:01:00,
2013-07-12 19:07:00,63.2,51.8,30.03,NNW,342,3.0,3.0,66,0.00,,,0.00,WUHU216DAVISVP2,2013-07-13 02:07:00,
2013-07-12 19:12:00,63.2,51.8,30.03,NNW,348,3.0,3.0,66,0.00,,,0.00,WUHU216DAVISVP2,2013-07-13 02:12:00,
2013-07-12 19:17:00,63.3,51.3,30.03,NW,311,0.0,3.0,65,0.00,,,0.00,WUHU216DAVISVP2,2013-07-13 02:17:00,
2013-07-12 19:22:00,63.5,52.1,30.03,NNW,330,1.0,3.0,66,0.00,,,0.00,WUHU216DAVISVP2,2013-07-13 02:22:00,
2013-07-12 19:27:00,63.7,52.3,30.03,NNE,28,3.0,4.0,66,0.00,,,0.00,WUHU216DAVISVP2,2013-07-13 02:27:00,
2013-07-12 19:32:00,63.8,52.0,30.03,NNW,332,3.0,4.0,65,0.00,,,0.00,WUHU216DAVISVP2,2013-07-13 02:32:00,
2013-07-12 19:38:00,63.7,51.9,30.03,NW,309,1.0,3.0,65,0.00,,,0.00,WUHU216DAVISVP2,2013-07-13 02:38:00,
2013-07-12 19:43:00,63.6,51.8,30.03,NE,40,0.0,3.0,65,0.00,,,0.00,WUHU216DAVISVP2,2013-07-13 02:43:00,
2013-07-12 19:48:00,63.4,51.6,30.03,NE,37,2.0,4.0,65,0.00,,,0.00,WUHU216DAVISVP2,2013-07-13 02:48:00,
2013-07-12 19:53:00,63.2,51.8,30.04,NNW,348,0.0,4.0,66,0.00,,,0.00,WUHU216DAVISVP2,2013-07-13 02:53:00,
2013-07-12 19:58:00,63.1,52.1,30.04,NNW,346,0.0,2.0,67,0.00,,,0.00,WUHU216DAVISVP2,2013-07-13 02:58:00,
2013-07-12 20:03:00,63.0,52.0,30.04,NNW,341,0.0,2.0,67,0.00,,,0.00,WUHU216DAVISVP2,2013-07-13 03:03:00,
2013-07-12 20:08:00,62.9,52.3,30.04,NNE,30,0.0,2.0,68,0.00,,,0.00,WUHU216DAVISVP2,2013-07-13 03:08:00,
2013-07-12 20:13:00,62.7,52.0,30.04,NNE,30,0.0,0.0,68,0.00,,,0.00,WUHU216DAVISVP2,2013-07-13 03:13:00,
2013-07-12 20:18:00,62.4,52.1,30.04,NNE,30,0.0,1.0,69,0.00,,,0.00,WUHU216DAVISVP2,2013-07-13 03:18:00,
2013-07-12 20:24:00,62.2,52.4,30.04,NNE,30,0.0,1.0,70,0.00,,,0.00,WUHU216DAVISVP2,2013-07-13 03:24:00,
2013-07-12 20:29:00,62.1,52.3,30.04,NNE,30,0.0,0.0,70,0.00,,,0.00,WUHU216DAVISVP2,2013-07-13 03:29:00,
2013-07-12 20:34:00,61.9,52.5,30.04,NNE,30,0.0,0.0,71,0.00,,,0.00,WUHU216DAVISVP2,2013-07-13 03:34:00,
2013-07-12 20:39:00,61.7,52.7,30.05,NNE,30,0.0,0.0,72,0.00,,,0.00,WUHU216DAVISVP2,2013-07-13 03:39:00,
2013-07-12 20:44:00,61.5,52.9,30.05,NNE,30,0.0,0.0,73,0.00,,,0.00,WUHU216DAVISVP2,2013-07-13 03:44:00,
2013-07-12 20:49:00,61.1,52.4,30.05,NNE,30,0.0,0.0,73,0.00,,,0.00,WUHU216DAVISVP2,2013-07-13 03:49:00,
2013-07-12 20:54:00,60.8,52.5,30.05,NNE,30,0.0,0.0,74,0.00,,,0.00,WUHU216DAVISVP2,2013-07-13 03:54:00,
2013-07-12 20:59:00,60.3,52.1,30.05,NNE,30,0.0,0.0,74,0.00,,,0.00,WUHU216DAVISVP2,2013-07-13 03:59:00,
2013-07-12 21:01:00,60.2,52.0,30.05,NNE,30,0.0,0.0,74,0.00,,,0.00,WUHU216DAVISVP2,2013-07-13 04:01:00,
2013-07-12 21:02:00,60.1,51.9,30.05,NNE,30,0.0,0.0,74,0.00,,,0.00,WUHU216DAVISVP2,2013-07-13 04:02:00,
2013-07-12 21:07:00,59.7,51.9,30.05,NNE,30,0.0,0.0,75,0.00,,,0.00,WUHU216DAVISVP2,2013-07-13 04:07:00,
2013-07-12 21:12:00,59.3,51.8,30.05,NNE,30,0.0,0.0,76,0.00,,,0.00,WUHU216DAVISVP2,2013-07-13 04:12:00,
2013-07-12 21:17:00,58.9,51.7,30.05,NNE,30,0.0,0.0,77,0.00,,,0.00,WUHU216DAVISVP2,2013-07-13 04:17:00,
2013-07-12 21:22:00,58.5,51.7,30.05,NNE,30,0.0,0.0,78,0.00,,,0.00,WUHU216DAVISVP2,2013-07-13 04:22:00,
2013-07-12 21:27:00,58.2,51.4,30.05,NNE,30,0.0,0.0,78,0.00,,,0.00,WUHU216DAVISVP2,2013-07-13 04:27:00,
2013-07-12 21:32:00,57.7,51.6,30.05,NNE,30,0.0,0.0,80,0.00,,,0.00,WUHU216DAVISVP2,2013-07-13 04:32:00,
2013-07-12 21:37:00,57.3,51.6,30.05,NNE,30,0.0,0.0,81,0.00,,,0.00,WUHU216DAVISVP2,2013-07-13 04:37:00,
2013-07-12 21:42:00,56.9,51.5,30.06,NNE,30,0.0,0.0,82,0.00,,,0.00,WUHU216DAVISVP2,2013-07-13 04:42:00,
2013-07-12 21:47:00,56.5,51.4,30.05,NNE,30,0.0,0.0,83,0.00,,,0.00,WUHU216DAVISVP2,2013-07-13 04:47:00,
2013-07-12 21:52:00,56.1,51.3,30.06,NNE,30,0.0,0.0,84,0.00,,,0.00,WUHU216DAVISVP2,2013-07-13 04:52:00,
2013-07-12 21:57:00,55.7,50.9,30.06,NNE,30,0.0,0.0,84,0.00,,,0.00,WUHU216DAVISVP2,2013-07-13 04:57:00,
2013-07-12 22:02:00,55.3,50.9,30.06,NNE,30,0.0,0.0,85,0.00,,,0.00,WUHU216DAVISVP2,2013-07-13 05:02:00,
2013-07-12 22:07:00,55.0,50.9,30.06,NNE,30,0.0,0.0,86,0.00,,,0.00,WUHU216DAVISVP2,2013-07-13 05:07:00,
2013-07-12 22:12:00,54.7,50.6,30.06,NNE,30,0.0,0.0,86,0.00,,,0.00,WUHU216DAVISVP2,2013-07-13 05:12:00,
2013-07-12 22:17:00,54.4,50.6,30.06,NNE,30,0.0,0.0,87,0.00,,,0.00,WUHU216DAVISVP2,2013-07-13 05:17:00,
2013-07-12 22:22:00,54.2,50.4,30.07,NNE,30,0.0,0.0,87,0.00,,,0.00,WUHU216DAVISVP2,2013-07-13 05:22:00,
2013-07-12 22:27:00,53.8,50.3,30.07,SW,222,1.0,3.0,88,0.00,,,0.00,WUHU216DAVISVP2,2013-07-13 05:27:00,
2013-07-12 22:32:00,53.7,50.5,30.07,SW,222,0.0,3.0,89,0.00,,,0.00,WUHU216DAVISVP2,2013-07-13 05:32:00,
2013-07-12 22:37:00,53.6,50.4,30.07,SW,222,0.0,0.0,89,0.00,,,0.00,WUHU216DAVISVP2,2013-07-13 05:37:00,
2013-07-12 22:42:00,53.5,50.3,30.07,SW,222,0.0,0.0,89,0.00,,,0.00,WUHU216DAVISVP2,2013-07-13 05:42:00,
2013-07-12 22:47:00,53.4,50.2,30.07,SW,222,0.0,0.0,89,0.00,,,0.00,WUHU216DAVISVP2,2013-07-13 05:47:00,
2013-07-12 22:52:00,53.3,50.1,30.07,SW,222,0.0,0.0,89,0.00,,,0.00,WUHU216DAVISVP2,2013-07-13 05:52:00,
2013-07-12 22:57:00,53.1,49.9,30.08,SW,222,0.0,0.0,89,0.00,,,0.00,WUHU216DAVISVP2,2013-07-13 05:57:00,
2013-07-12 23:02:00,52.9,50.0,30.08,SW,222,0.0,0.0,90,0.00,,,0.00,WUHU216DAVISVP2,2013-07-13 06:02:00,
2013-07-12 23:07:00,52.7,49.8,30.08,SW,222,0.0,0.0,90,0.00,,,0.00,WUHU216DAVISVP2,2013-07-13 06:07:00,
2013-07-12 23:12:00,52.6,49.7,30.09,SW,222,0.0,0.0,90,0.00,,,0.00,WUHU216DAVISVP2,2013-07-13 06:12:00,
2013-07-12 23:17:00,52.4,49.5,30.09,SW,222,0.0,0.0,90,0.00,,,0.00,WUHU216DAVISVP2,2013-07-13 06:17:00,
2013-07-12 23:22:00,52.2,49.6,30.09,SW,222,0.0,0.0,91,0.00,,,0.00,WUHU216DAVISVP2,2013-07-13 06:22:00,
2013-07-12 23:27:00,52.1,49.5,30.09,SW,222,0.0,0.0,91,0.00,,,0.00,WUHU216DAVISVP2,2013-07-13 06:27:00,
2013-07-12 23:32:00,51.9,49.3,30.09,SW,222,0.0,0.0,91,0.00,,,0.00,WUHU216DAVISVP2,2013-07-13 06:32:00,
2013-07-12 23:37:00,51.8,49.2,30.09,SW,222,0.0,0.0,91,0.00,,,0.00,WUHU216DAVISVP2,2013-07-13 06:37:00,
2013-07-12 23:42:00,51.6,49.0,30.10,SW,222,0.0,0.0,91,0.00,,,0.00,WUHU216DAVISVP2,2013-07-13 06:42:00,
2013-07-12 23:47:00,51.4,48.8,30.10,SW,222,0.0,0.0,91,0.00,,,0.00,WUHU216DAVISVP2,2013-07-13 06:47:00,
2013-07-12 23:52:00,51.2,48.6,30.10,SW,222,0.0,0.0,91,0.00,,,0.00,WUHU216DAVISVP2,2013-07-13 06:52:00,
2013-07-12 23:57:00,51.1,48.5,30.10,SW,222,0.0,0.0,91,0.00,,,0.00,WUHU216DAVISVP2,2013-07-13 06:57:00,